| time (UTC) | temp C | wind direction | speed KPH | gust KPH | rain 1hr cm | rain 24hr cm | rain mn cm | humidity % | barometer mb |
| 20260507094319 | 6 | 275 | 0.0 | 4.8 | 0.00 | 0.66 | 0.00 | 93 | 1004.1 |
| 20260507092818 | 6 | 275 | 0.0 | 4.8 | 0.00 | 0.66 | 0.00 | 93 | 1004.3 |
| 20260507091311 | 6 | 275 | 1.6 | 9.7 | 0.00 | 0.66 | 0.00 | 93 | 1004.4 |
| 20260507082807 | 6 | 275 | 1.6 | 6.4 | 0.00 | 0.66 | 0.00 | 93 | 1004.7 |
| 20260507081306 | 6 | 275 | 0.0 | 3.2 | 0.00 | 0.66 | 0.00 | 93 | 1004.6 |
| 20260507075803 | 6 | 275 | 0.0 | 0.0 | 0.00 | 0.66 | 0.00 | 93 | 1004.4 |
| 20260507074303 | 6 | 275 | 0.0 | 0.0 | 0.00 | 0.66 | 0.00 | 93 | 1004.5 |
| 20260507072803 | 6 | 275 | 0.0 | 0.0 | 0.00 | 0.66 | 0.00 | 93 | 1004.5 |
| 20260507071301 | 6 | 275 | 0.0 | 0.0 | 0.00 | 0.66 | 0.00 | 93 | 1004.6 |
| 20260507065758 | 6 | 275 | 0.0 | 0.0 | 0.00 | 0.66 | 0.00 | 94 | 1004.7 |
| 20260507055750 | 6 | 275 | 1.6 | 4.8 | 0.00 | 0.66 | 0.00 | 94 | 1005.2 |
| 20260507054250 | 6 | 275 | 1.6 | 6.4 | 0.00 | 0.66 | 0.00 | 94 | 1005.3 |
| 20260507051250 | 6 | 275 | 0.0 | 3.2 | 0.00 | 0.66 | 0.00 | 93 | 1005.6 |
| 20260507045750 | 6 | 275 | 0.0 | 0.0 | 0.00 | 0.66 | 0.00 | 93 | 1005.8 |
| 20260507044252 | 6 | 275 | 0.0 | 1.6 | 0.00 | 0.66 | 0.00 | 93 | 1005.7 |
| 20260507042749 | 6 | 275 | 0.0 | 4.8 | 0.00 | 0.66 | 0.00 | 93 | 1005.6 |
| 20260507041248 | 6 | 275 | 1.6 | 9.7 | 0.00 | 0.66 | 0.00 | 93 | 1005.7 |
| 20260507035748 | 6 | 275 | 3.2 | 12.9 | 0.00 | 0.66 | 0.66 | 93 | 1005.8 |
| 20260507032747 | 6 | 275 | 1.6 | 9.7 | 0.00 | 0.66 | 0.66 | 93 | 1006.2 |
| 20260507031251 | 6 | 275 | 1.6 | 6.4 | 0.00 | 0.66 | 0.66 | 93 | 1006.4 |
| 20260507025748 | 6 | 275 | 0.0 | 11.3 | 0.00 | 0.66 | 0.66 | 93 | 1006.4 |
| 20260507024248 | 6 | 275 | 1.6 | 9.7 | 0.00 | 0.66 | 0.66 | 93 | 1006.4 |
| 20260507022747 | 6 | 275 | 1.6 | 9.7 | 0.00 | 0.66 | 0.66 | 92 | 1006.4 |
| 20260507021241 | 6 | 276 | 3.2 | 6.4 | 0.00 | 0.66 | 0.66 | 93 | 1006.4 |
| 20260507015742 | 6 | 275 | 1.6 | 6.4 | 0.00 | 0.66 | 0.66 | 93 | 1006.3 |
| 20260507014243 | 7 | 276 | 0.0 | 6.4 | 0.00 | 0.66 | 0.66 | 92 | 1006.3 |
| 20260507011241 | 7 | 276 | 0.0 | 4.8 | 0.00 | 0.71 | 0.66 | 92 | 1006.3 |
| 20260507005740 | 7 | 275 | 0.0 | 0.0 | 0.00 | 0.74 | 0.66 | 92 | 1006.5 |
| 20260507004238 | 7 | 276 | 0.0 | 0.0 | 0.00 | 0.79 | 0.66 | 92 | 1006.5 |
| 20260507002738 | 7 | 275 | 0.0 | 4.8 | 0.00 | 0.84 | 0.66 | 91 | 1006.4 |
| 20260507001239 | 7 | 276 | 0.0 | 3.2 | 0.00 | 0.84 | 0.66 | 91 | 1006.4 |
| 20260506234237 | 7 | 275 | 0.0 | 3.2 | 0.00 | 0.86 | 0.66 | 91 | 1006.4 |
| 20260506232735 | 8 | 275 | 0.0 | 3.2 | 0.00 | 0.86 | 0.66 | 91 | 1006.5 |
| 20260506231235 | 8 | 276 | 0.0 | 0.0 | 0.00 | 0.86 | 0.66 | 91 | 1006.2 |
| 20260506225732 | 7 | 275 | 0.0 | 3.2 | 0.00 | 0.86 | 0.66 | 92 | 1006.2 |
| 20260506224231 | 7 | 275 | 0.0 | 3.2 | 0.00 | 0.86 | 0.66 | 92 | 1006.4 |
| 20260506222730 | 7 | 275 | 0.0 | 3.2 | 0.00 | 0.86 | 0.66 | 92 | 1006.5 |
| 20260506221228 | 7 | 275 | 0.0 | 1.6 | 0.00 | 0.86 | 0.66 | 92 | 1006.6 |
| 20260506215726 | 7 | 275 | 0.0 | 0.0 | 0.00 | 0.86 | 0.66 | 92 | 1006.5 |
| 20260506214227 | 7 | 275 | 0.0 | 0.0 | 0.00 | 0.86 | 0.66 | 92 | 1006.6 |
| 20260506212726 | 7 | 275 | 0.0 | 3.2 | 0.00 | 0.86 | 0.66 | 91 | 1006.7 |
| 20260506211225 | 7 | 276 | 0.0 | 1.6 | 0.00 | 0.86 | 0.66 | 91 | 1006.7 |
| 20260506205726 | 8 | 275 | 0.0 | 0.0 | 0.00 | 0.86 | 0.66 | 92 | 1006.6 |
| 20260506202725 | 7 | 275 | 0.0 | 3.2 | 0.00 | 0.86 | 0.66 | 91 | 1006.8 |
| 20260506201223 | 7 | 276 | 1.6 | 4.8 | 0.00 | 0.86 | 0.66 | 90 | 1006.8 |
| 20260506195723 | 8 | 275 | 0.0 | 3.2 | 0.00 | 0.86 | 0.66 | 91 | 1006.8 |
| 20260506194215 | 8 | 275 | 0.0 | 0.0 | 0.03 | 0.86 | 0.66 | 92 | 1006.8 |
| 20260506192714 | 8 | 275 | 0.0 | 3.2 | 0.03 | 0.86 | 0.66 | 92 | 1006.9 |
| 20260506191213 | 8 | 275 | 0.0 | 3.2 | 0.03 | 0.86 | 0.66 | 92 | 1007.0 |
| 20260506185712 | 8 | 275 | 0.0 | 0.0 | 0.03 | 0.86 | 0.66 | 93 | 1007.0 |
| 20260506184216 | 8 | 276 | 0.0 | 0.0 | 0.03 | 0.84 | 0.64 | 94 | 1007.3 |
| 20260506182710 | 7 | 276 | 0.0 | 4.8 | 0.03 | 0.84 | 0.64 | 94 | 1007.3 |
| 20260506181212 | 7 | 276 | 0.0 | 6.4 | 0.05 | 0.84 | 0.64 | 94 | 1007.3 |
| 20260506175710 | 7 | 276 | 0.0 | 6.4 | 0.05 | 0.84 | 0.64 | 94 | 1007.4 |
| 20260506171208 | 7 | 276 | 1.6 | 4.8 | 0.08 | 0.89 | 0.61 | 93 | 1008.1 |
| 20260506165707 | 7 | 276 | 0.0 | 3.2 | 0.10 | 0.89 | 0.58 | 93 | 1008.1 |
| 20260506164206 | 7 | 275 | 0.0 | 4.8 | 0.10 | 0.89 | 0.56 | 93 | 1008.2 |
| 20260506162707 | 7 | 276 | 1.6 | 4.8 | 0.13 | 0.94 | 0.53 | 93 | 1008.4 |
| 20260506161206 | 7 | 275 | 0.0 | 4.8 | 0.15 | 0.99 | 0.51 | 93 | 1008.5 |
| 20260506154204 | 7 | 276 | 1.6 | 6.4 | 0.18 | 0.91 | 0.46 | 93 | 1008.6 |
| 20260506152701 | 7 | 274 | 0.0 | 4.8 | 0.15 | 0.89 | 0.43 | 93 | 1008.8 |
| 20260506151203 | 7 | 274 | 0.0 | 4.8 | 0.15 | 0.84 | 0.38 | 94 | 1009.0 |
| 20260506145702 | 7 | 274 | 0.0 | 6.4 | 0.13 | 0.79 | 0.33 | 94 | 1009.0 |
| 20260506144159 | 7 | 274 | 0.0 | 9.7 | 0.08 | 0.74 | 0.28 | 94 | 1008.8 |
| 20260506142658 | 7 | 271 | 1.6 | 11.3 | 0.08 | 0.71 | 0.25 | 94 | 1008.7 |
| 20260506141158 | 7 | 271 | 1.6 | 9.7 | 0.05 | 0.69 | 0.23 | 94 | 1008.8 |
| 20260506135650 | 7 | 271 | 0.0 | 6.4 | 0.05 | 0.66 | 0.20 | 94 | 1008.7 |
| 20260506134149 | 7 | 271 | 1.6 | 11.3 | 0.05 | 0.66 | 0.20 | 94 | 1008.5 |
| 20260506132651 | 7 | 273 | 1.6 | 11.3 | 0.05 | 0.64 | 0.18 | 94 | 1008.6 |
| 20260506131151 | 7 | 273 | 4.8 | 11.3 | 0.08 | 0.64 | 0.18 | 93 | 1008.7 |
| 20260506125649 | 7 | 272 | 1.6 | 9.7 | 0.08 | 0.61 | 0.15 | 93 | 1008.7 |
| 20260506124150 | 7 | 272 | 1.6 | 9.7 | 0.13 | 0.61 | 0.15 | 93 | 1008.6 |
| 20260506122644 | 7 | 273 | 1.6 | 6.4 | 0.13 | 0.58 | 0.13 | 92 | 1008.7 |
| 20260506121143 | 7 | 273 | 4.8 | 14.5 | 0.10 | 0.56 | 0.10 | 91 | 1008.5 |
| 20260506115643 | 8 | 282 | 6.4 | 20.9 | 0.08 | 0.53 | 0.08 | 91 | 1008.6 |
| 20260506114140 | 9 | 289 | 4.8 | 14.5 | 0.03 | 0.48 | 0.03 | 91 | 1008.6 |
| 20260506112642 | 9 | 255 | 1.6 | 12.9 | 0.00 | 0.46 | 0.00 | 91 | 1008.2 |
| 20260506111139 | 10 | 252 | 1.6 | 11.3 | 0.00 | 0.46 | 0.00 | 90 | 1008.0 |
| 20260506101136 | 10 | 252 | 1.6 | 14.5 | 0.00 | 0.46 | 0.00 | 89 | 1007.1 |